TimeCST,TemperatureF,Dew PointF,Humidity,Sea Level PressureIn,VisibilityMPH,Wind Direction,Wind SpeedMPH,Gust SpeedMPH,PrecipitationIn,Events,Conditions,WindDirDegrees,DateUTC
12:55 AM,34.5,29.1,81,29.96,10.0,South,8.1,-,N/A,,Clear,180,2012-12-23 06:55:00
1:55 AM,32.5,28.2,84,29.96,10.0,South,5.8,-,N/A,,Clear,170,2012-12-23 07:55:00
2:55 AM,32.5,28.2,84,29.96,10.0,South,5.8,-,N/A,,Clear,180,2012-12-23 08:55:00
3:55 AM,30.7,27.7,88,29.94,10.0,SSW,3.5,-,N/A,,Clear,210,2012-12-23 09:55:00
4:55 AM,30.9,27.7,88,29.94,10.0,Calm,Calm,-,N/A,,Clear,0,2012-12-23 10:55:00
5:55 AM,29.7,27.7,92,29.96,10.0,Calm,Calm,-,N/A,,Clear,0,2012-12-23 11:55:00
6:55 AM,29.3,27.3,92,29.96,10.0,Calm,Calm,-,N/A,,Clear,0,2012-12-23 12:55:00
7:55 AM,30.0,28.4,94,29.97,10.0,Calm,Calm,-,N/A,,Clear,0,2012-12-23 13:55:00
8:55 AM,33.3,30.2,89,29.98,10.0,Calm,Calm,-,N/A,,Clear,0,2012-12-23 14:55:00
9:55 AM,43.7,32.0,63,29.98,10.0,Calm,Calm,-,N/A,,Clear,0,2012-12-23 15:55:00
10:55 AM,48.2,29.1,48,29.97,10.0,Calm,Calm,-,N/A,,Clear,0,2012-12-23 16:55:00
11:55 AM,52.2,30.4,43,29.94,10.0,Calm,Calm,-,N/A,,Clear,0,2012-12-23 17:55:00
12:55 PM,51.4,31.3,46,29.92,10.0,ENE,5.8,-,N/A,,Clear,60,2012-12-23 18:55:00
1:55 PM,52.3,31.3,45,29.90,10.0,NE,6.9,-,N/A,,Clear,50,2012-12-23 19:55:00
2:55 PM,50.7,31.5,48,29.89,10.0,NE,8.1,-,N/A,,Clear,50,2012-12-23 20:55:00
3:55 PM,50.0,30.7,48,29.90,7.0,NNE,5.8,-,N/A,,Clear,30,2012-12-23 21:55:00
4:55 PM,44.4,33.1,64,29.91,2.5,North,5.8,-,N/A,,Haze,10,2012-12-23 22:55:00
5:03 PM,44.6,32.0,61,29.91,3.0,NNE,5.8,-,N/A,,Haze,20,2012-12-23 23:03:00
5:11 PM,42.8,32.0,66,29.91,3.0,North,6.9,-,N/A,,Haze,10,2012-12-23 23:11:00
5:55 PM,41.7,33.3,72,29.92,3.0,North,6.9,-,N/A,,Haze,10,2012-12-23 23:55:00
6:04 PM,41.0,33.8,76,29.92,4.0,NNE,5.8,-,N/A,,Haze,20,2012-12-24 00:04:00
6:36 PM,39.2,32.0,75,29.91,5.0,NNE,8.1,-,N/A,,Haze,20,2012-12-24 00:36:00
6:55 PM,38.8,32.9,79,29.91,6.0,NNE,9.2,-,N/A,,Haze,20,2012-12-24 00:55:00
7:55 PM,36.7,31.8,83,29.91,6.0,NNE,5.8,-,N/A,,Haze,20,2012-12-24 01:55:00
8:07 PM,37.4,32.0,81,29.91,5.0,North,5.8,-,N/A,,Haze,10,2012-12-24 02:07:00
8:55 PM,35.6,32.2,87,29.91,4.0,NNE,5.8,-,N/A,,Clear,20,2012-12-24 02:55:00
9:21 PM,35.6,32.0,87,29.90,5.0,North,4.6,-,N/A,,Partly Cloudy,10,2012-12-24 03:21:00
9:55 PM,36.3,32.2,85,29.89,8.0,NNE,4.6,-,N/A,,Mostly Cloudy,30,2012-12-24 03:55:00
10:52 PM,35.6,32.0,87,29.87,5.0,NNE,6.9,-,N/A,,Haze,20,2012-12-24 04:52:00
10:55 PM,36.3,32.2,85,29.87,5.0,NNE,5.8,-,N/A,,Haze,20,2012-12-24 04:55:00
11:15 PM,35.6,32.0,87,29.86,6.0,NNE,5.8,-,N/A,,Scattered Clouds,20,2012-12-24 05:15:00
11:32 PM,35.6,32.0,87,29.86,5.0,North,4.6,-,N/A,,Partly Cloudy,10,2012-12-24 05:32:00
11:55 PM,35.2,32.0,88,29.86,5.0,NNE,4.6,-,N/A,,Clear,20,2012-12-24 05:55:00